| time (UTC) | temp F | wind direction | speed MPH | gust MPH | rain 1hr in | rain 24hr in | rain mn in | humidity % | barometer mb |
| 20260505022525 | 70 | 162 | 0.0 | 0.0 | 0.00 | 0.00 | 0.00 | 50 | 1008.5 |
| 20260505022022 | 70 | 173 | 0.0 | 0.0 | 0.00 | 0.00 | 0.00 | 49 | 1008.6 |
| 20260505021518 | 70 | 172 | 0.0 | 0.0 | 0.00 | 0.00 | 0.00 | 50 | 1008.3 |
| 20260505021015 | 70 | 165 | 0.0 | 0.0 | 0.00 | 0.00 | 0.00 | 49 | 1008.3 |
| 20260505020515 | 70 | 172 | 0.0 | 0.0 | 0.00 | 0.00 | 0.00 | 49 | 1008.3 |
| 20260505020012 | 71 | 185 | 0.0 | 0.0 | 0.00 | 0.00 | 0.00 | 49 | 1008.2 |
| 20260505015509 | 70 | 171 | 0.0 | 0.0 | 0.00 | 0.00 | 0.00 | 49 | 1007.9 |
| 20260505015006 | 71 | 155 | 0.0 | 0.0 | 0.00 | 0.00 | 0.00 | 48 | 1008.1 |
| 20260505014503 | 71 | 164 | 0.0 | 0.0 | 0.00 | 0.00 | 0.00 | 48 | 1008.3 |
| 20260505014000 | 71 | 176 | 0.0 | 0.0 | 0.00 | 0.00 | 0.00 | 48 | 1008.3 |
| 20260505013457 | 71 | 169 | 0.0 | 0.0 | 0.00 | 0.00 | 0.00 | 48 | 1008.2 |
| 20260505012954 | 71 | 172 | 0.0 | 0.0 | 0.00 | 0.00 | 0.00 | 47 | 1008.4 |
| 20260505012452 | 71 | 175 | 0.0 | 0.0 | 0.00 | 0.00 | 0.00 | 47 | 1008.1 |
| 20260505011949 | 71 | 172 | 0.0 | 0.0 | 0.00 | 0.00 | 0.00 | 47 | 1008.3 |
| 20260505011445 | 71 | 165 | 0.0 | 0.0 | 0.00 | 0.00 | 0.00 | 47 | 1008.1 |
| 20260505010942 | 71 | 214 | 0.0 | 1.0 | 0.00 | 0.00 | 0.00 | 47 | 1008.2 |
| 20260505010438 | 72 | 169 | 0.0 | 0.0 | 0.00 | 0.00 | 0.00 | 46 | 1008.2 |
| 20260505005934 | 72 | 190 | 0.0 | 0.0 | 0.00 | 0.00 | 0.00 | 47 | 1008.1 |
| 20260505005431 | 72 | 165 | 0.0 | 0.0 | 0.00 | 0.00 | 0.00 | 46 | 1008.3 |
| 20260505004929 | 72 | 169 | 0.0 | 0.0 | 0.00 | 0.00 | 0.00 | 45 | 1008.3 |
| 20260505004425 | 73 | 164 | 0.0 | 0.0 | 0.00 | 0.00 | 0.00 | 45 | 1008.0 |
| 20260505003922 | 73 | 175 | 0.0 | 0.0 | 0.00 | 0.00 | 0.00 | 45 | 1008.0 |
| 20260505003419 | 73 | 171 | 0.0 | 0.0 | 0.00 | 0.00 | 0.00 | 45 | 1008.2 |
| 20260505002915 | 73 | 173 | 0.0 | 0.0 | 0.00 | 0.00 | 0.00 | 45 | 1008.2 |
| 20260505002412 | 73 | 177 | 0.0 | 0.0 | 0.00 | 0.00 | 0.00 | 45 | 1008.0 |
| 20260505001910 | 74 | 158 | 0.0 | 0.0 | 0.00 | 0.00 | 0.00 | 45 | 1008.0 |
| 20260505001407 | 74 | 185 | 0.0 | 0.0 | 0.00 | 0.00 | 0.00 | 45 | 1008.2 |
| 20260505000904 | 74 | 166 | 0.0 | 0.0 | 0.00 | 0.00 | 0.00 | 45 | 1008.3 |
| 20260505000402 | 74 | 170 | 0.0 | 0.0 | 0.00 | 0.00 | 0.00 | 45 | 1008.2 |
| 20260504235858 | 74 | 157 | 0.0 | 0.0 | 0.00 | 0.00 | 0.00 | 45 | 1008.2 |
| 20260504235356 | 74 | 155 | 0.0 | 0.0 | 0.00 | 0.00 | 0.00 | 44 | 1008.3 |
| 20260504234852 | 74 | 165 | 0.0 | 0.0 | 0.00 | 0.00 | 0.00 | 43 | 1008.1 |
| 20260504234350 | 75 | 161 | 0.0 | 0.0 | 0.00 | 0.00 | 0.00 | 44 | 1008.4 |
| 20260504233846 | 75 | 147 | 0.0 | 0.0 | 0.00 | 0.00 | 0.00 | 45 | 1008.3 |
| 20260504233342 | 75 | 172 | 0.0 | 0.0 | 0.00 | 0.00 | 0.00 | 44 | 1008.5 |
| 20260504232839 | 75 | 153 | 0.0 | 0.0 | 0.00 | 0.00 | 0.00 | 45 | 1008.5 |
| 20260504232336 | 76 | 168 | 0.0 | 1.0 | 0.00 | 0.00 | 0.00 | 42 | 1008.5 |
| 20260504231832 | 76 | 162 | 2.0 | 2.0 | 0.00 | 0.00 | 0.00 | 42 | 1008.6 |
| 20260504231329 | 76 | 168 | 0.0 | 1.0 | 0.00 | 0.00 | 0.00 | 43 | 1008.4 |
| 20260504230825 | 76 | 217 | 2.0 | 5.0 | 0.00 | 0.00 | 0.00 | 43 | 1008.5 |
| 20260504230323 | 76 | 159 | 0.0 | 0.0 | 0.00 | 0.00 | 0.00 | 44 | 1008.4 |
| 20260504225822 | 77 | 171 | 0.0 | 0.0 | 0.00 | 0.00 | 0.00 | 44 | 1008.4 |
| 20260504225317 | 77 | 173 | 0.0 | 0.0 | 0.00 | 0.00 | 0.00 | 43 | 1008.3 |
| 20260504224815 | 77 | 168 | 1.0 | 2.0 | 0.00 | 0.00 | 0.00 | 42 | 1008.6 |
| 20260504224312 | 77 | 129 | 1.0 | 2.0 | 0.00 | 0.00 | 0.00 | 43 | 1008.5 |
| 20260504223809 | 77 | 189 | 0.0 | 0.0 | 0.00 | 0.00 | 0.00 | 43 | 1008.4 |
| 20260504223304 | 77 | 177 | 0.0 | 0.0 | 0.00 | 0.00 | 0.00 | 42 | 1008.8 |
| 20260504222801 | 78 | 178 | 3.0 | 5.0 | 0.00 | 0.00 | 0.00 | 40 | 1008.6 |
| 20260504222258 | 78 | 182 | 1.0 | 2.0 | 0.00 | 0.00 | 0.00 | 39 | 1008.5 |
| 20260504221756 | 78 | 158 | 2.0 | 3.0 | 0.00 | 0.00 | 0.00 | 39 | 1008.6 |
| 20260504221253 | 78 | 174 | 0.0 | 0.0 | 0.00 | 0.00 | 0.00 | 39 | 1008.8 |
| 20260504220749 | 78 | 166 | 1.0 | 2.0 | 0.00 | 0.00 | 0.00 | 42 | 1008.5 |
| 20260504220246 | 78 | 167 | 2.0 | 3.0 | 0.00 | 0.00 | 0.00 | 39 | 1008.4 |
| 20260504215744 | 79 | 179 | 2.0 | 2.0 | 0.00 | 0.00 | 0.00 | 41 | 1008.6 |
| 20260504215240 | 78 | 254 | 0.0 | 2.0 | 0.00 | 0.00 | 0.00 | 40 | 1008.3 |
| 20260504214736 | 79 | 179 | 2.0 | 3.0 | 0.00 | 0.00 | 0.00 | 37 | 1008.6 |
| 20260504214233 | 78 | 205 | 0.0 | 0.0 | 0.00 | 0.00 | 0.00 | 40 | 1008.2 |
| 20260504213729 | 79 | 161 | 2.0 | 5.0 | 0.00 | 0.00 | 0.00 | 42 | 1008.4 |
| 20260504213226 | 78 | 164 | 0.0 | 2.0 | 0.00 | 0.00 | 0.00 | 43 | 1008.3 |
| 20260504212723 | 79 | 198 | 1.0 | 1.0 | 0.00 | 0.00 | 0.00 | 40 | 1008.3 |
| 20260504212220 | 79 | 164 | 0.0 | 2.0 | 0.00 | 0.00 | 0.00 | 42 | 1008.0 |
| 20260504211717 | 80 | 244 | 0.0 | 0.0 | 0.00 | 0.00 | 0.00 | 41 | 1008.2 |
| 20260504211213 | 80 | 177 | 0.0 | 1.0 | 0.00 | 0.00 | 0.00 | 39 | 1008.4 |
| 20260504210711 | 80 | 167 | 3.0 | 3.0 | 0.00 | 0.00 | 0.00 | 39 | 1008.2 |
| 20260504210208 | 80 | 194 | 0.0 | 0.0 | 0.00 | 0.00 | 0.00 | 39 | 1008.3 |
| 20260504205705 | 79 | 180 | 0.0 | 1.0 | 0.00 | 0.00 | 0.00 | 38 | 1008.4 |
| 20260504205202 | 79 | 182 | 0.0 | 1.0 | 0.00 | 0.00 | 0.00 | 42 | 1008.2 |
| 20260504204700 | 78 | 231 | 0.0 | 1.0 | 0.00 | 0.00 | 0.00 | 43 | 1008.5 |
| 20260504204159 | 79 | 187 | 1.0 | 2.0 | 0.00 | 0.00 | 0.00 | 41 | 1008.4 |
| 20260504203657 | 78 | 161 | 1.0 | 2.0 | 0.00 | 0.00 | 0.00 | 43 | 1008.3 |
| 20260504203155 | 78 | 164 | 2.0 | 2.0 | 0.00 | 0.00 | 0.00 | 41 | 1008.6 |
| 20260504202654 | 77 | 144 | 3.0 | 3.0 | 0.00 | 0.00 | 0.00 | 45 | 1008.4 |
| 20260504202152 | 78 | 197 | 0.0 | 0.0 | 0.00 | 0.00 | 0.00 | 41 | 1008.5 |
| 20260504201649 | 79 | 208 | 2.0 | 2.0 | 0.00 | 0.00 | 0.00 | 40 | 1008.8 |
| 20260504201146 | 78 | 171 | 1.0 | 2.0 | 0.00 | 0.00 | 0.00 | 43 | 1008.5 |
| 20260504200643 | 80 | 177 | 2.0 | 3.0 | 0.00 | 0.00 | 0.00 | 43 | 1009.1 |
| 20260504200140 | 79 | 163 | 1.0 | 2.0 | 0.00 | 0.00 | 0.00 | 40 | 1009.1 |
| 20260504195636 | 78 | 194 | 0.0 | 0.0 | 0.00 | 0.00 | 0.00 | 43 | 1009.2 |
| 20260504195132 | 78 | 199 | 1.0 | 2.0 | 0.00 | 0.00 | 0.00 | 44 | 1009.3 |
| 20260504194629 | 77 | 147 | 2.0 | 5.0 | 0.00 | 0.00 | 0.00 | 43 | 1009.3 |
| 20260504194125 | 78 | 190 | 2.0 | 2.0 | 0.00 | 0.00 | 0.00 | 42 | 1009.3 |
| 20260504193621 | 78 | 192 | 0.0 | 0.0 | 0.00 | 0.00 | 0.00 | 42 | 1009.5 |
| 20260504193120 | 77 | 175 | 0.0 | 0.0 | 0.00 | 0.00 | 0.00 | 47 | 1009.2 |
| 20260504192617 | 77 | 158 | 0.0 | 0.0 | 0.00 | 0.00 | 0.00 | 46 | 1009.4 |
| 20260504192115 | 77 | 184 | 0.0 | 0.0 | 0.00 | 0.00 | 0.00 | 47 | 1009.4 |
| 20260504191614 | 77 | 175 | 1.0 | 2.0 | 0.00 | 0.00 | 0.00 | 43 | 1009.8 |
| 20260504191109 | 78 | 278 | 2.0 | 2.0 | 0.00 | 0.00 | 0.00 | 44 | 1009.9 |
| 20260504190606 | 78 | 159 | 0.0 | 0.0 | 0.00 | 0.00 | 0.00 | 44 | 1009.8 |
| 20260504185559 | 78 | 222 | 3.0 | 3.0 | 0.00 | 0.00 | 0.00 | 44 | 1009.9 |
| 20260504185055 | 78 | 96 | 1.0 | 1.0 | 0.00 | 0.00 | 0.00 | 44 | 1010.0 |
| 20260504184551 | 77 | 155 | 2.0 | 2.0 | 0.00 | 0.00 | 0.00 | 49 | 1010.1 |
| 20260504184046 | 77 | 236 | 2.0 | 3.0 | 0.00 | 0.00 | 0.00 | 47 | 1010.2 |
| 20260504183544 | 77 | 146 | 0.0 | 0.0 | 0.00 | 0.00 | 0.00 | 46 | 1010.0 |
| 20260504183042 | 77 | 179 | 1.0 | 1.0 | 0.00 | 0.00 | 0.00 | 46 | 1010.2 |
| 20260504182538 | 77 | 190 | 1.0 | 1.0 | 0.00 | 0.00 | 0.00 | 47 | 1010.3 |
| 20260504182036 | 77 | 261 | 5.0 | 7.0 | 0.00 | 0.00 | 0.00 | 45 | 1010.1 |
| 20260504181533 | 77 | 199 | 0.0 | 1.0 | 0.00 | 0.00 | 0.00 | 46 | 1010.3 |
| 20260504181031 | 77 | 176 | 0.0 | 0.0 | 0.00 | 0.00 | 0.00 | 47 | 1010.2 |
| 20260504180530 | 78 | 170 | 1.0 | 1.0 | 0.00 | 0.00 | 0.00 | 46 | 1010.5 |
| 20260504180028 | 77 | 170 | 2.0 | 2.0 | 0.00 | 0.00 | 0.00 | 47 | 1010.4 |
| 20260504175525 | 77 | 171 | 0.0 | 0.0 | 0.00 | 0.00 | 0.00 | 48 | 1010.5 |
| 20260504175022 | 77 | 221 | 0.0 | 0.0 | 0.00 | 0.00 | 0.00 | 47 | 1010.5 |
| 20260504174520 | 76 | 168 | 0.0 | 0.0 | 0.00 | 0.00 | 0.00 | 50 | 1010.4 |
| 20260504174016 | 76 | 209 | 1.0 | 1.0 | 0.00 | 0.00 | 0.00 | 48 | 1010.4 |
| 20260504173513 | 75 | 173 | 0.0 | 0.0 | 0.00 | 0.00 | 0.00 | 49 | 1010.4 |
| 20260504173011 | 76 | 207 | 1.0 | 3.0 | 0.00 | 0.00 | 0.00 | 47 | 1010.4 |
| 20260504172507 | 75 | 165 | 0.0 | 0.0 | 0.00 | 0.00 | 0.00 | 49 | 1010.7 |
| 20260504172003 | 75 | 195 | 4.0 | 6.0 | 0.00 | 0.00 | 0.00 | 50 | 1010.6 |
| 20260504171500 | 74 | 182 | 3.0 | 3.0 | 0.00 | 0.00 | 0.00 | 50 | 1010.7 |
| 20260504170957 | 75 | 195 | 1.0 | 1.0 | 0.00 | 0.00 | 0.00 | 50 | 1010.7 |
| 20260504170453 | 75 | 172 | 0.0 | 0.0 | 0.00 | 0.00 | 0.00 | 51 | 1011.0 |
| 20260504160413 | 73 | 175 | 0.0 | 0.0 | 0.00 | 0.00 | 0.00 | 54 | 1011.8 |
| 20260504150837 | 68 | 214 | 0.0 | 1.0 | 0.00 | 0.00 | 0.00 | 60 | 1012.2 |
| 20260504150334 | 68 | 176 | 0.0 | 0.0 | 0.00 | 0.00 | 0.00 | 62 | 1012.0 |
| 20260504141304 | 63 | 178 | 0.0 | 0.0 | 0.00 | 0.00 | 0.00 | 69 | 1012.2 |
| 20260504140800 | 62 | 157 | 0.0 | 0.0 | 0.00 | 0.00 | 0.00 | 70 | 1012.2 |
| 20260504140256 | 61 | 168 | 0.0 | 0.0 | 0.00 | 0.00 | 0.00 | 68 | 1012.4 |
| 20260504130725 | 55 | 171 | 0.0 | 0.0 | 0.00 | 0.00 | 0.00 | 77 | 1012.8 |
| 20260504130220 | 55 | 167 | 0.0 | 0.0 | 0.00 | 0.00 | 0.00 | 77 | 1012.7 |
| 20260504120145 | 51 | 159 | 0.0 | 0.0 | 0.00 | 0.00 | 0.00 | 81 | 1012.5 |
| 20260504110612 | 51 | 163 | 0.0 | 0.0 | 0.00 | 0.00 | 0.00 | 79 | 1012.1 |
| 20260504110108 | 51 | 165 | 0.0 | 0.0 | 0.00 | 0.00 | 0.00 | 78 | 1012.0 |
| 20260504100534 | 51 | 170 | 0.0 | 0.0 | 0.00 | 0.00 | 0.00 | 75 | 1011.8 |
| 20260504081927 | 53 | 171 | 0.0 | 0.0 | 0.00 | 0.00 | 0.00 | 69 | 1012.0 |
| 20260504081424 | 53 | 169 | 0.0 | 0.0 | 0.00 | 0.00 | 0.00 | 69 | 1012.1 |
| 20260504080920 | 53 | 172 | 0.0 | 0.0 | 0.00 | 0.00 | 0.00 | 69 | 1012.0 |
| 20260504080417 | 53 | 171 | 0.0 | 0.0 | 0.00 | 0.00 | 0.00 | 68 | 1012.2 |
| 20260504070344 | 51 | 173 | 0.0 | 0.0 | 0.00 | 0.00 | 0.00 | 70 | 1012.6 |
| 20260504050732 | 55 | 177 | 0.0 | 0.0 | 0.00 | 0.00 | 0.00 | 59 | 1013.5 |
| 20260504050229 | 55 | 174 | 0.0 | 0.0 | 0.00 | 0.00 | 0.00 | 60 | 1013.5 |
| 20260504045726 | 54 | 175 | 0.0 | 0.0 | 0.00 | 0.00 | 0.00 | 62 | 1013.6 |
| 20260504045221 | 55 | 172 | 0.0 | 0.0 | 0.00 | 0.00 | 0.00 | 60 | 1013.5 |
| 20260504044719 | 55 | 174 | 0.0 | 0.0 | 0.00 | 0.00 | 0.00 | 59 | 1013.7 |
| 20260504044216 | 55 | 176 | 0.0 | 0.0 | 0.00 | 0.00 | 0.00 | 58 | 1013.8 |
| 20260504043714 | 55 | 178 | 0.0 | 0.0 | 0.00 | 0.00 | 0.00 | 59 | 1013.6 |
| 20260504043210 | 55 | 178 | 0.0 | 0.0 | 0.00 | 0.00 | 0.00 | 60 | 1013.6 |
| 20260504042708 | 56 | 178 | 0.0 | 0.0 | 0.00 | 0.00 | 0.00 | 57 | 1013.8 |
| 20260504042204 | 56 | 178 | 0.0 | 0.0 | 0.00 | 0.00 | 0.00 | 56 | 1013.7 |
| 20260504041700 | 57 | 175 | 0.0 | 0.0 | 0.00 | 0.00 | 0.00 | 56 | 1013.5 |
| 20260504041156 | 57 | 168 | 0.0 | 0.0 | 0.00 | 0.00 | 0.00 | 55 | 1013.4 |
| 20260504040653 | 57 | 169 | 0.0 | 0.0 | 0.00 | 0.00 | 0.00 | 54 | 1013.7 |
| 20260504040150 | 57 | 171 | 0.0 | 0.0 | 0.00 | 0.00 | 0.00 | 54 | 1013.5 |
| 20260504035647 | 57 | 122 | 0.0 | 0.0 | 0.00 | 0.00 | 0.00 | 53 | 1013.4 |
| 20260504035144 | 58 | 164 | 0.0 | 0.0 | 0.00 | 0.00 | 0.00 | 53 | 1013.3 |
| 20260504034641 | 57 | 160 | 0.0 | 0.0 | 0.00 | 0.00 | 0.00 | 54 | 1013.0 |
| 20260504034138 | 57 | 168 | 0.0 | 0.0 | 0.00 | 0.00 | 0.00 | 54 | 1013.0 |
| 20260504033636 | 57 | 165 | 0.0 | 0.0 | 0.00 | 0.00 | 0.00 | 54 | 1013.2 |
| 20260504033133 | 58 | 171 | 0.0 | 0.0 | 0.00 | 0.00 | 0.00 | 53 | 1013.4 |
| 20260504032629 | 58 | 171 | 0.0 | 0.0 | 0.00 | 0.00 | 0.00 | 52 | 1013.4 |
| 20260504032127 | 57 | 163 | 0.0 | 0.0 | 0.00 | 0.00 | 0.00 | 54 | 1013.2 |
| 20260504031624 | 57 | 174 | 0.0 | 0.0 | 0.00 | 0.00 | 0.00 | 54 | 1013.3 |
| 20260504031120 | 57 | 174 | 1.0 | 2.0 | 0.00 | 0.00 | 0.00 | 54 | 1013.3 |
| 20260504030617 | 57 | 174 | 0.0 | 0.0 | 0.00 | 0.00 | 0.00 | 53 | 1013.7 |
| 20260504030114 | 57 | 171 | 0.0 | 0.0 | 0.00 | 0.00 | 0.00 | 54 | 1013.7 |
| 20260504025610 | 57 | 170 | 0.0 | 0.0 | 0.00 | 0.00 | 0.00 | 54 | 1013.6 |
| 20260504025107 | 57 | 171 | 0.0 | 0.0 | 0.00 | 0.00 | 0.00 | 54 | 1014.0 |
| 20260504024604 | 57 | 177 | 0.0 | 0.0 | 0.00 | 0.00 | 0.00 | 55 | 1014.0 |
| 20260504024101 | 57 | 169 | 0.0 | 0.0 | 0.00 | 0.00 | 0.00 | 54 | 1013.8 |
| 20260504023557 | 56 | 172 | 0.0 | 0.0 | 0.00 | 0.00 | 0.00 | 58 | 1013.8 |
| 20260504023054 | 56 | 174 | 0.0 | 0.0 | 0.00 | 0.00 | 0.00 | 62 | 1013.9 |